Asheville, NC

4:27 AM EDT on October 22, 2019 (GMT -0400)
Asheville Regional

Weather History for KAVL - May, 2019

Change the Weather History Date:

Thursday, May 30, 2019

  Actual Average Record
Temperature  
Mean Temperature 76 °F 67 °F  
Max Temperature 91 °F 78 °F 91 °F (1969)
Min Temperature 61 °F 55 °F 40 °F (1893)
Degree Days  
Heating Degree Days 0 1  
Month to date heating degree days 25 108  
Since 1 July heating degree days 3552 4180  
Cooling Degree Days 11 3  
Month to date cooling degree days 154 50  
Year to date cooling degree days 171 58  
Growing Degree Days 26 (Base 50)    
Moisture  
Dew Point 57 °F    
Average Humidity 61    
Maximum Humidity 90    
Minimum Humidity 31    
Precipitation  
Precipitation 0.00 in 0.13 in 4.18 in (1889)
Month to date precipitation 3.35 3.53  
Year to date precipitation 27.14 18.12  
Snow  
Snow 0.00 in 0.00 in 0.00 in ()
Month to date snowfall 0.0 0.0  
Since 1 July snowfall 11.4 9.9  
Snow Depth 0.00 in    
Sea Level Pressure  
Sea Level Pressure 29.88 in    
Wind  
Wind Speed 5 mph (SSW)    
Max Wind Speed 22 mph    
Max Gust Speed 28 mph    
Visibility 9 miles    
Events      
T = Trace of Precipitation, MM = Missing Value Source: NWS Daily Summary

Daily Weather History Graph

Daily Weather History Graph

Search for Another Location

Airport or City:

Astronomy

May. 30, 2019 Rise Set
Actual Time 6:17 AM EDT 8:38 PM EDT
Civil Twilight 5:47 AM EDT 9:07 PM EDT
Nautical Twilight 5:11 AM EDT 9:44 PM EDT
Astronomical Twilight 4:32 AM EDT 10:23 PM EDT
Moon 4:10 AM EDT (5/30) 4:55 PM EDT (5/30)
Length of Visible Light 15h 20m
Length of Day
14h 21m
Waning Crescent, 15% of the Moon is Illuminated
May 30
Waning Crescent
Jun 3
New
Jun 10
First Quarter
Jun 17
Full
Jun 25
Last Quarter

Hourly Weather History & Observations

Time (EDT) Temp. Heat Index Dew Point Humidity Pressure Visibility Wind Dir Wind Speed Gust Speed Precip Events Conditions
12:54 AM 66.9 °F - 57.9 °F 73% 29.91 in 10.0 mi Calm Calm - N/A   Clear
1:54 AM 66.0 °F - 57.9 °F 75% 29.91 in 10.0 mi Calm Calm - N/A   Clear
2:54 AM 63.0 °F - 57.9 °F 84% 29.90 in 10.0 mi Calm Calm - N/A   Clear
3:54 AM 63.0 °F - 57.9 °F 84% 29.89 in 10.0 mi Calm Calm - N/A   Clear
4:54 AM 62.1 °F - 57.0 °F 84% 29.90 in 9.0 mi Calm Calm - N/A   Clear
5:54 AM 61.0 °F - 57.0 °F 87% 29.91 in 9.0 mi WSW 3.5 mph - N/A   Clear
6:54 AM 62.1 °F - 57.9 °F 86% 29.92 in 9.0 mi Calm Calm - N/A   Clear
7:54 AM 68.0 °F - 57.9 °F 70% 29.93 in 10.0 mi Calm Calm - N/A   Clear
8:54 AM 73.0 °F - 60.1 °F 64% 29.93 in 10.0 mi Calm Calm - N/A   Clear
9:54 AM 78.1 °F - 60.1 °F 54% 29.91 in 10.0 mi Calm Calm - N/A   Clear
10:54 AM 82.0 °F 82.0 °F 57.9 °F 44% 29.91 in 10.0 mi Variable 6.9 mph - N/A   Clear
11:54 AM 86.0 °F 84.5 °F 55.0 °F 35% 29.89 in 10.0 mi SSW 11.5 mph 20.7 mph N/A   Partly Cloudy
12:54 PM 88.0 °F 85.9 °F 54.0 °F 31% 29.88 in 10.0 mi SSW 16.1 mph 23.0 mph N/A   Clear
1:06 PM 89.1 °F 86.9 °F 54.0 °F 30% 29.96 in 10.0 mi South 17.3 mph 24.2 mph N/A   Clear
1:54 PM 89.1 °F 87.3 °F 55.9 °F 32% 29.86 in 6.0 mi South 16.1 mph 25.3 mph N/A   Haze
2:54 PM 89.1 °F 87.3 °F 55.9 °F 32% 29.84 in 10.0 mi South 11.5 mph 18.4 mph N/A   Partly Cloudy
3:54 PM 88.0 °F 86.1 °F 55.0 °F 32% 29.84 in 10.0 mi SSW 18.4 mph 25.3 mph N/A   Clear
4:54 PM 87.1 °F 85.3 °F 55.0 °F 33% 29.83 in 10.0 mi SSW 16.1 mph 23.0 mph N/A   Clear
5:54 PM 86.0 °F 84.2 °F 54.0 °F 33% 29.83 in 10.0 mi SSW 13.8 mph - N/A   Scattered Clouds
6:54 PM 82.9 °F 81.9 °F 54.0 °F 37% 29.83 in 10.0 mi SSW 6.9 mph - N/A   Clear
7:54 PM 81.0 °F 80.8 °F 55.9 °F 42% 29.83 in 8.0 mi Calm Calm - N/A   Partly Cloudy
8:54 PM 78.1 °F - 55.9 °F 46% 29.84 in 10.0 mi Calm Calm - N/A   Partly Cloudy
9:54 PM 75.0 °F - 55.9 °F 51% 29.84 in 10.0 mi South 3.5 mph - N/A   Clear
10:54 PM 71.1 °F - 57.9 °F 63% 29.85 in 10.0 mi WSW 4.6 mph - N/A   Clear
11:54 PM 71.1 °F - 57.0 °F 61% 29.86 in 10.0 mi Calm Calm - N/A   Clear